Year,Month,Day,Hour,Minute,Value (Times are PST for temperature in C)
2015,06,27,00,00,19.70
2015,06,27,00,01,19.70
2015,06,27,00,02,19.60
2015,06,27,00,03,19.60
2015,06,27,00,04,19.60
2015,06,27,00,05,19.50
2015,06,27,00,06,19.50
2015,06,27,00,07,19.50
2015,06,27,00,08,19.50
2015,06,27,00,09,19.50
2015,06,27,00,10,19.40
2015,06,27,00,11,19.40
2015,06,27,00,12,19.40
2015,06,27,00,13,19.40
2015,06,27,00,14,19.40
2015,06,27,00,15,19.40
2015,06,27,00,16,19.40
2015,06,27,00,17,19.30
2015,06,27,00,18,19.30
2015,06,27,00,19,19.30
2015,06,27,00,20,19.30
2015,06,27,00,21,19.30
2015,06,27,00,22,19.30
2015,06,27,00,23,19.30
2015,06,27,00,24,19.20
2015,06,27,00,25,19.20
2015,06,27,00,26,19.20
2015,06,27,00,27,19.20
2015,06,27,00,28,19.20
2015,06,27,00,29,19.20
2015,06,27,00,30,19.20
2015,06,27,00,31,19.10
2015,06,27,00,32,19.10
2015,06,27,00,33,19.00
2015,06,27,00,34,19.00
2015,06,27,00,35,19.00
2015,06,27,00,36,18.90
2015,06,27,00,37,18.90
2015,06,27,00,38,18.90
2015,06,27,00,39,19.00
2015,06,27,00,40,19.00
2015,06,27,00,41,19.00
2015,06,27,00,42,18.90
2015,06,27,00,43,18.90
2015,06,27,00,44,18.90
2015,06,27,00,45,18.90
2015,06,27,00,46,18.80
2015,06,27,00,47,18.80
2015,06,27,00,48,18.80
2015,06,27,00,49,18.80
2015,06,27,00,50,18.80
2015,06,27,00,51,18.70
2015,06,27,00,52,18.70
2015,06,27,00,53,18.70
2015,06,27,00,54,18.60
2015,06,27,00,55,18.60
2015,06,27,00,56,18.60
2015,06,27,00,57,18.60
2015,06,27,00,58,18.60
2015,06,27,00,59,18.50
2015,06,27,01,00,18.50
2015,06,27,01,01,18.50
2015,06,27,01,02,18.50
2015,06,27,01,03,18.50
2015,06,27,01,04,18.50
2015,06,27,01,05,18.40
2015,06,27,01,06,18.40
2015,06,27,01,07,18.40
2015,06,27,01,08,18.40
2015,06,27,01,09,18.40
2015,06,27,01,10,18.30
2015,06,27,01,11,18.30
2015,06,27,01,12,18.30
2015,06,27,01,13,18.30
2015,06,27,01,14,18.30
2015,06,27,01,15,18.30
2015,06,27,01,16,18.30
2015,06,27,01,17,18.30
2015,06,27,01,18,18.20
2015,06,27,01,19,18.20
2015,06,27,01,20,18.20
2015,06,27,01,21,18.20
2015,06,27,01,22,18.20
2015,06,27,01,23,18.20
2015,06,27,01,24,18.20
2015,06,27,01,25,18.20
2015,06,27,01,26,18.20
2015,06,27,01,27,18.20
2015,06,27,01,28,18.20
2015,06,27,01,29,18.20
2015,06,27,01,30,18.20
2015,06,27,01,31,18.20
2015,06,27,01,32,18.20
2015,06,27,01,33,18.20
2015,06,27,01,34,18.20
2015,06,27,01,35,18.20
2015,06,27,01,36,18.20
2015,06,27,01,37,18.20
2015,06,27,01,38,18.20
2015,06,27,01,39,18.20
2015,06,27,01,40,18.10
2015,06,27,01,41,18.10
2015,06,27,01,42,18.10
2015,06,27,01,43,18.10
2015,06,27,01,44,18.10
2015,06,27,01,45,18.10
2015,06,27,01,46,18.00
2015,06,27,01,47,18.00
2015,06,27,01,48,18.00
2015,06,27,01,49,18.00
2015,06,27,01,50,18.00
2015,06,27,01,51,18.00
2015,06,27,01,52,17.90
2015,06,27,01,53,17.90
2015,06,27,01,54,17.90
2015,06,27,01,55,17.90
2015,06,27,01,56,17.90
2015,06,27,01,57,17.90
2015,06,27,01,58,17.90
2015,06,27,01,59,17.80
2015,06,27,02,00,17.80
2015,06,27,02,01,17.80
2015,06,27,02,02,17.80
2015,06,27,02,03,17.70
2015,06,27,02,04,17.70
2015,06,27,02,05,17.70
2015,06,27,02,06,17.60
2015,06,27,02,07,17.60
2015,06,27,02,08,17.60
2015,06,27,02,09,17.60
2015,06,27,02,10,17.50
2015,06,27,02,11,17.50
2015,06,27,02,12,17.50
2015,06,27,02,13,17.50
2015,06,27,02,14,17.50
2015,06,27,02,15,17.50
2015,06,27,02,16,17.40
2015,06,27,02,17,17.40
2015,06,27,02,18,17.40
2015,06,27,02,19,17.40
2015,06,27,02,20,17.30
2015,06,27,02,21,17.30
2015,06,27,02,22,17.30
2015,06,27,02,23,17.30
2015,06,27,02,24,17.30
2015,06,27,02,25,17.20
2015,06,27,02,26,17.20
2015,06,27,02,27,17.20
2015,06,27,02,28,17.20
2015,06,27,02,29,17.20
2015,06,27,02,30,17.20
2015,06,27,02,31,17.10
2015,06,27,02,32,17.10
2015,06,27,02,33,17.10
2015,06,27,02,34,17.10
2015,06,27,02,35,17.10
2015,06,27,02,36,17.10
2015,06,27,02,37,17.10
2015,06,27,02,38,17.10
2015,06,27,02,39,17.10
2015,06,27,02,40,17.10
2015,06,27,02,41,17.10
2015,06,27,02,42,17.10
2015,06,27,02,43,17.00
2015,06,27,02,44,17.00
2015,06,27,02,45,17.00
2015,06,27,02,46,16.90
2015,06,27,02,47,16.90
2015,06,27,02,48,16.90
2015,06,27,02,49,16.90
2015,06,27,02,50,16.90
2015,06,27,02,51,16.90
2015,06,27,02,52,16.90
2015,06,27,02,53,17.00
2015,06,27,02,54,17.00
2015,06,27,02,55,17.00
2015,06,27,02,56,16.90
2015,06,27,02,57,16.90
2015,06,27,02,58,16.90
2015,06,27,02,59,16.90
2015,06,27,03,00,16.90
2015,06,27,03,01,16.90
2015,06,27,03,02,16.90
2015,06,27,03,03,16.80
2015,06,27,03,04,16.80
2015,06,27,03,05,16.80
2015,06,27,03,06,16.80
2015,06,27,03,07,16.80
2015,06,27,03,08,16.90
2015,06,27,03,09,16.90
2015,06,27,03,10,16.90
2015,06,27,03,11,16.90
2015,06,27,03,12,16.90
2015,06,27,03,13,16.90
2015,06,27,03,14,17.00
2015,06,27,03,15,17.10
2015,06,27,03,16,17.20
2015,06,27,03,17,17.30
2015,06,27,03,18,17.40
2015,06,27,03,19,17.40
2015,06,27,03,20,17.50
2015,06,27,03,21,17.50
2015,06,27,03,22,17.50
2015,06,27,03,23,17.60
2015,06,27,03,24,17.60
2015,06,27,03,25,17.60
2015,06,27,03,26,17.60
2015,06,27,03,27,17.60
2015,06,27,03,28,17.60
2015,06,27,03,29,17.50
2015,06,27,03,30,17.50
2015,06,27,03,31,17.50
2015,06,27,03,32,17.60
2015,06,27,03,33,17.60
2015,06,27,03,34,17.70
2015,06,27,03,35,17.90
2015,06,27,03,36,18.00
2015,06,27,03,37,18.10
2015,06,27,03,38,18.20
2015,06,27,03,39,18.30
2015,06,27,03,40,18.40
2015,06,27,03,41,18.50
2015,06,27,03,42,18.60
2015,06,27,03,43,18.60
2015,06,27,03,44,18.70
2015,06,27,03,45,18.70
2015,06,27,03,46,18.80
2015,06,27,03,47,18.80
2015,06,27,03,48,18.80
2015,06,27,03,49,18.80
2015,06,27,03,50,18.80
2015,06,27,03,51,18.80
2015,06,27,03,52,18.80
2015,06,27,03,53,18.70
2015,06,27,03,54,18.70
2015,06,27,03,55,18.60
2015,06,27,03,56,18.60
2015,06,27,03,57,18.50
2015,06,27,03,58,18.50
2015,06,27,03,59,18.40
2015,06,27,04,00,18.30
2015,06,27,04,01,18.30
2015,06,27,04,02,18.20
2015,06,27,04,03,18.10
2015,06,27,04,04,18.00
2015,06,27,04,05,18.00
2015,06,27,04,06,17.90
2015,06,27,04,07,17.90
2015,06,27,04,08,17.80
2015,06,27,04,09,17.70
2015,06,27,04,10,17.70
2015,06,27,04,11,17.60
2015,06,27,04,12,17.50
2015,06,27,04,13,17.40
2015,06,27,04,14,17.40
2015,06,27,04,15,17.30
2015,06,27,04,16,17.30
2015,06,27,04,17,17.30
2015,06,27,04,18,17.20
2015,06,27,04,19,17.20
2015,06,27,04,20,17.10
2015,06,27,04,21,17.10
2015,06,27,04,22,17.10
2015,06,27,04,23,17.10
2015,06,27,04,24,17.00
2015,06,27,04,25,17.00
2015,06,27,04,26,17.00
2015,06,27,04,27,17.10
2015,06,27,04,28,17.20
2015,06,27,04,29,17.30
2015,06,27,04,30,17.30
2015,06,27,04,31,17.40
2015,06,27,04,32,17.50
2015,06,27,04,33,17.50
2015,06,27,04,34,17.60
2015,06,27,04,35,17.60
2015,06,27,04,36,17.60
2015,06,27,04,37,17.60
2015,06,27,04,38,17.50
2015,06,27,04,39,17.50
2015,06,27,04,40,17.40
2015,06,27,04,41,17.40
2015,06,27,04,42,17.30
2015,06,27,04,43,17.30
2015,06,27,04,44,17.30
2015,06,27,04,45,17.20
2015,06,27,04,46,17.20
2015,06,27,04,47,17.20
2015,06,27,04,48,17.10
2015,06,27,04,49,17.10
2015,06,27,04,50,17.10
2015,06,27,04,51,17.00
2015,06,27,04,52,17.00
2015,06,27,04,53,16.90
2015,06,27,04,54,16.90
2015,06,27,04,55,16.90
2015,06,27,04,56,16.90
2015,06,27,04,57,16.90
2015,06,27,04,58,16.90
2015,06,27,04,59,16.90
2015,06,27,05,00,16.90
2015,06,27,05,01,16.80
2015,06,27,05,02,16.80
2015,06,27,05,03,16.80
2015,06,27,05,04,16.80
2015,06,27,05,05,16.70
2015,06,27,05,06,16.70
2015,06,27,05,07,16.70
2015,06,27,05,08,16.70
2015,06,27,05,09,16.70
2015,06,27,05,10,16.70
2015,06,27,05,11,16.60
2015,06,27,05,12,16.60
2015,06,27,05,13,16.60
2015,06,27,05,14,16.60
2015,06,27,05,15,16.60
2015,06,27,05,16,16.60
2015,06,27,05,17,16.60
2015,06,27,05,18,16.60
2015,06,27,05,19,16.60
2015,06,27,05,20,16.60
2015,06,27,05,21,16.50
2015,06,27,05,22,16.50
2015,06,27,05,23,16.50
2015,06,27,05,24,16.50
2015,06,27,05,25,16.40
2015,06,27,05,26,16.40
2015,06,27,05,27,16.40
2015,06,27,05,28,16.40
2015,06,27,05,29,16.40
2015,06,27,05,30,16.30
2015,06,27,05,31,16.30
2015,06,27,05,32,16.30
2015,06,27,05,33,16.30
2015,06,27,05,34,16.30
2015,06,27,05,35,16.30
2015,06,27,05,36,16.30
2015,06,27,05,37,16.30
2015,06,27,05,38,16.30
2015,06,27,05,39,16.20
2015,06,27,05,40,16.20
2015,06,27,05,41,16.30
2015,06,27,05,42,16.30
2015,06,27,05,43,16.30
2015,06,27,05,44,16.30
2015,06,27,05,45,16.30
2015,06,27,05,46,16.30
2015,06,27,05,47,16.30
2015,06,27,05,48,16.30
2015,06,27,05,49,16.30
2015,06,27,05,50,16.30
2015,06,27,05,51,16.40
2015,06,27,05,52,16.40
2015,06,27,05,53,16.40
2015,06,27,05,54,16.50
2015,06,27,05,55,16.50
2015,06,27,05,56,16.60
2015,06,27,05,57,16.60
2015,06,27,05,58,16.70
2015,06,27,05,59,16.70
2015,06,27,06,00,16.70
2015,06,27,06,01,16.80
2015,06,27,06,02,16.80
2015,06,27,06,03,16.80
2015,06,27,06,04,16.90
2015,06,27,06,05,17.00
2015,06,27,06,06,17.00
2015,06,27,06,07,17.10
2015,06,27,06,08,17.10
2015,06,27,06,09,17.10
2015,06,27,06,10,17.10
2015,06,27,06,11,17.20
2015,06,27,06,12,17.20
2015,06,27,06,13,17.20
2015,06,27,06,14,17.30
2015,06,27,06,15,17.30
2015,06,27,06,16,17.30
2015,06,27,06,17,17.30
2015,06,27,06,18,17.40
2015,06,27,06,19,17.50
2015,06,27,06,20,17.50
2015,06,27,06,21,17.60
2015,06,27,06,22,17.70
2015,06,27,06,23,17.80
2015,06,27,06,24,17.80
2015,06,27,06,25,17.80
2015,06,27,06,26,17.90
2015,06,27,06,27,17.90
2015,06,27,06,28,18.00
2015,06,27,06,29,18.00
2015,06,27,06,30,18.00
2015,06,27,06,31,18.10
2015,06,27,06,32,18.10
2015,06,27,06,33,18.10
2015,06,27,06,34,18.20
2015,06,27,06,35,18.20
2015,06,27,06,36,18.20
2015,06,27,06,37,18.20
2015,06,27,06,38,18.20
2015,06,27,06,39,18.20
2015,06,27,06,40,18.20
2015,06,27,06,41,18.20
2015,06,27,06,42,18.20
2015,06,27,06,43,18.10
2015,06,27,06,44,18.10
2015,06,27,06,45,18.00
2015,06,27,06,46,17.90
2015,06,27,06,47,17.90
2015,06,27,06,48,17.90
2015,06,27,06,49,17.90
2015,06,27,06,50,17.90
2015,06,27,06,51,17.90
2015,06,27,06,52,17.90
2015,06,27,06,53,17.90
2015,06,27,06,54,17.90
2015,06,27,06,55,18.00
2015,06,27,06,56,18.00
2015,06,27,06,57,18.10
2015,06,27,06,58,18.10
2015,06,27,06,59,18.20
2015,06,27,07,00,18.20
2015,06,27,07,01,18.30
2015,06,27,07,02,18.30
2015,06,27,07,03,18.30
2015,06,27,07,04,18.40
2015,06,27,07,05,18.40
2015,06,27,07,06,18.50
2015,06,27,07,07,18.50
2015,06,27,07,08,18.60
2015,06,27,07,09,18.70
2015,06,27,07,10,18.80
2015,06,27,07,11,18.80
2015,06,27,07,12,18.90
2015,06,27,07,13,19.00
2015,06,27,07,14,19.10
2015,06,27,07,15,19.20
2015,06,27,07,16,19.30
2015,06,27,07,17,19.40
2015,06,27,07,18,19.40
2015,06,27,07,19,19.50
2015,06,27,07,20,19.60
2015,06,27,07,21,19.60
2015,06,27,07,22,19.70
2015,06,27,07,23,19.70
2015,06,27,07,24,19.80
2015,06,27,07,25,19.80
2015,06,27,07,26,19.90
2015,06,27,07,27,20.00
2015,06,27,07,28,20.00
2015,06,27,07,29,20.10
2015,06,27,07,30,20.20
2015,06,27,07,31,20.20
2015,06,27,07,32,20.20
2015,06,27,07,33,20.20
2015,06,27,07,34,20.20
2015,06,27,07,35,20.30
2015,06,27,07,36,20.30
2015,06,27,07,37,20.30
2015,06,27,07,38,20.30
2015,06,27,07,39,20.30
2015,06,27,07,40,20.20
2015,06,27,07,41,20.20
2015,06,27,07,42,20.20
2015,06,27,07,43,20.20
2015,06,27,07,44,20.20
2015,06,27,07,45,20.10
2015,06,27,07,46,20.10
2015,06,27,07,47,20.10
2015,06,27,07,48,20.10
2015,06,27,07,49,20.10
2015,06,27,07,50,20.20
2015,06,27,07,51,20.20
2015,06,27,07,52,20.30
2015,06,27,07,53,20.30
2015,06,27,07,54,20.30
2015,06,27,07,55,20.40
2015,06,27,07,56,20.50
2015,06,27,07,57,20.50
2015,06,27,07,58,20.50
2015,06,27,07,59,20.50
2015,06,27,08,00,20.60
2015,06,27,08,01,20.60
2015,06,27,08,02,20.60
2015,06,27,08,03,20.70
2015,06,27,08,04,20.70
2015,06,27,08,05,20.70
2015,06,27,08,06,20.70
2015,06,27,08,07,20.70
2015,06,27,08,08,20.70
2015,06,27,08,09,20.70
2015,06,27,08,10,20.70
2015,06,27,08,11,20.70
2015,06,27,08,12,20.60
2015,06,27,08,13,20.70
2015,06,27,08,14,20.70
2015,06,27,08,15,20.70
2015,06,27,08,16,20.70
2015,06,27,08,17,20.80
2015,06,27,08,18,20.80
2015,06,27,08,19,20.80
2015,06,27,08,20,20.90
2015,06,27,08,21,20.90
2015,06,27,08,22,20.90
2015,06,27,08,23,20.90
2015,06,27,08,24,21.00
2015,06,27,08,25,21.00
2015,06,27,08,26,21.00
2015,06,27,08,27,21.00
2015,06,27,08,28,21.10
2015,06,27,08,29,21.10
2015,06,27,08,30,21.10
2015,06,27,08,31,21.10
2015,06,27,08,32,21.10
2015,06,27,08,33,21.20
2015,06,27,08,34,21.20
2015,06,27,08,35,21.20
2015,06,27,08,36,21.30
2015,06,27,08,37,21.30
2015,06,27,08,38,21.30
2015,06,27,08,39,21.30
2015,06,27,08,40,21.30
2015,06,27,08,41,21.30
2015,06,27,08,42,21.30
2015,06,27,08,43,21.30
2015,06,27,08,44,21.30
2015,06,27,08,45,21.30
2015,06,27,08,46,21.40
2015,06,27,08,47,21.40
2015,06,27,08,48,21.40
2015,06,27,08,49,21.40
2015,06,27,08,50,21.40
2015,06,27,08,51,21.50
2015,06,27,08,52,21.60
2015,06,27,08,53,21.60
2015,06,27,08,54,21.60
2015,06,27,08,55,21.60
2015,06,27,08,56,21.60
2015,06,27,08,57,21.50
2015,06,27,08,58,21.40
2015,06,27,08,59,21.30
2015,06,27,09,00,21.20
2015,06,27,09,01,21.20
2015,06,27,09,02,21.10
2015,06,27,09,03,21.10
2015,06,27,09,04,21.00
2015,06,27,09,05,21.00
2015,06,27,09,06,20.90
2015,06,27,09,07,20.90
2015,06,27,09,08,20.90
2015,06,27,09,09,20.90
2015,06,27,09,10,21.00
2015,06,27,09,11,20.90
2015,06,27,09,12,21.00
2015,06,27,09,13,21.00
2015,06,27,09,14,21.10
2015,06,27,09,15,21.20
2015,06,27,09,16,21.20
2015,06,27,09,17,21.30
2015,06,27,09,18,21.30
2015,06,27,09,19,21.10
2015,06,27,09,20,21.00
2015,06,27,09,21,20.90
2015,06,27,09,22,20.90
2015,06,27,09,23,20.90
2015,06,27,09,24,20.90
2015,06,27,09,25,20.90
2015,06,27,09,26,20.80
2015,06,27,09,27,20.80
2015,06,27,09,28,20.80
2015,06,27,09,29,20.80
2015,06,27,09,30,20.70
2015,06,27,09,31,20.80
2015,06,27,09,32,20.70
2015,06,27,09,33,20.70
2015,06,27,09,34,20.70
2015,06,27,09,35,20.70
2015,06,27,09,36,20.70
2015,06,27,09,37,20.70
2015,06,27,09,38,20.80
2015,06,27,09,39,20.80
2015,06,27,09,40,20.80
2015,06,27,09,41,20.70
2015,06,27,09,42,20.80
2015,06,27,09,43,20.80
2015,06,27,09,44,20.90
2015,06,27,09,45,21.00
2015,06,27,09,46,21.00
2015,06,27,09,47,21.10
2015,06,27,09,48,21.20
2015,06,27,09,49,21.20
2015,06,27,09,50,21.20
2015,06,27,09,51,21.20
2015,06,27,09,52,21.20
2015,06,27,09,53,21.30
2015,06,27,09,54,21.40
2015,06,27,09,55,21.40
2015,06,27,09,56,21.40
2015,06,27,09,57,21.50
2015,06,27,09,58,21.50
2015,06,27,09,59,21.50
2015,06,27,10,00,21.50
2015,06,27,10,01,21.60
2015,06,27,10,02,21.60
2015,06,27,10,03,21.70
2015,06,27,10,04,21.70
2015,06,27,10,05,21.80
2015,06,27,10,06,21.90
2015,06,27,10,07,22.00
2015,06,27,10,08,22.10
2015,06,27,10,09,22.20
2015,06,27,10,10,22.20
2015,06,27,10,11,22.20
2015,06,27,10,12,22.20
2015,06,27,10,13,22.10
2015,06,27,10,14,22.10
2015,06,27,10,15,22.00
2015,06,27,10,16,22.00
2015,06,27,10,17,21.90
2015,06,27,10,18,21.80
2015,06,27,10,19,21.80
2015,06,27,10,20,21.70
2015,06,27,10,21,21.70
2015,06,27,10,22,21.60
2015,06,27,10,23,21.60
2015,06,27,10,24,21.60
2015,06,27,10,25,21.70
2015,06,27,10,26,21.70
2015,06,27,10,27,21.60
2015,06,27,10,28,21.60
2015,06,27,10,29,21.70
2015,06,27,10,30,21.70
2015,06,27,10,31,21.70
2015,06,27,10,32,21.70
2015,06,27,10,33,21.60
2015,06,27,10,34,21.60
2015,06,27,10,35,21.60
2015,06,27,10,36,21.60
2015,06,27,10,37,21.50
2015,06,27,10,38,21.50
2015,06,27,10,39,21.40
2015,06,27,10,40,21.40
2015,06,27,10,41,21.30
2015,06,27,10,42,21.30
2015,06,27,10,43,21.30
2015,06,27,10,44,21.30
2015,06,27,10,45,21.30
2015,06,27,10,46,21.40
2015,06,27,10,47,21.50
2015,06,27,10,48,21.50
2015,06,27,10,49,21.60
2015,06,27,10,50,21.70
2015,06,27,10,51,21.80
2015,06,27,10,52,21.90
2015,06,27,10,53,22.00
2015,06,27,10,54,22.10
2015,06,27,10,55,22.20
2015,06,27,10,56,22.30
2015,06,27,10,57,22.40
2015,06,27,10,58,22.50
2015,06,27,10,59,22.60
2015,06,27,11,00,22.60
2015,06,27,11,01,22.70
2015,06,27,11,02,22.70
2015,06,27,11,03,22.70
2015,06,27,11,04,22.80
2015,06,27,11,05,22.80
2015,06,27,11,06,22.80
2015,06,27,11,07,22.80
2015,06,27,11,08,22.70
2015,06,27,11,09,22.70
2015,06,27,11,10,22.70
2015,06,27,11,11,22.70
2015,06,27,11,12,22.60
2015,06,27,11,13,22.60
2015,06,27,11,14,22.60
2015,06,27,11,15,22.70
2015,06,27,11,16,22.80
2015,06,27,11,17,23.00
2015,06,27,11,18,23.10
2015,06,27,11,19,23.20
2015,06,27,11,20,23.30
2015,06,27,11,21,23.30
2015,06,27,11,22,23.40
2015,06,27,11,23,23.60
2015,06,27,11,24,23.70
2015,06,27,11,25,23.80
2015,06,27,11,26,24.00
2015,06,27,11,27,24.10
2015,06,27,11,28,24.20
2015,06,27,11,29,24.30
2015,06,27,11,30,24.30
2015,06,27,11,31,24.40
2015,06,27,11,32,24.50
2015,06,27,11,33,24.60
2015,06,27,11,34,24.60
2015,06,27,11,35,24.60
2015,06,27,11,36,24.70
2015,06,27,11,37,24.70
2015,06,27,11,38,24.80
2015,06,27,11,39,24.80
2015,06,27,11,40,24.90
2015,06,27,11,41,24.90
2015,06,27,11,42,24.80
2015,06,27,11,43,24.80
2015,06,27,11,44,24.90
2015,06,27,11,45,25.00
2015,06,27,11,46,25.10
2015,06,27,11,47,25.20
2015,06,27,11,48,25.20
2015,06,27,11,49,25.30
2015,06,27,11,50,25.30
2015,06,27,11,51,25.30
2015,06,27,11,52,25.30
2015,06,27,11,53,25.40
2015,06,27,11,54,25.40
2015,06,27,11,55,25.40
2015,06,27,11,56,25.50
2015,06,27,11,57,25.60
2015,06,27,11,58,25.70
2015,06,27,11,59,25.80
2015,06,27,12,00,25.90
2015,06,27,12,01,25.80
2015,06,27,12,02,25.70
2015,06,27,12,03,25.70
2015,06,27,12,04,25.60
2015,06,27,12,05,25.50
2015,06,27,12,06,25.40
2015,06,27,12,07,25.30
2015,06,27,12,08,25.20
2015,06,27,12,09,25.10
2015,06,27,12,10,25.00
2015,06,27,12,11,25.00
2015,06,27,12,12,25.00
2015,06,27,12,13,25.10
2015,06,27,12,14,25.00
2015,06,27,12,15,25.00
2015,06,27,12,16,25.00
2015,06,27,12,17,25.00
2015,06,27,12,18,25.10
2015,06,27,12,19,25.20
2015,06,27,12,20,25.30
2015,06,27,12,21,25.40
2015,06,27,12,22,25.50
2015,06,27,12,23,25.50
2015,06,27,12,24,25.50
2015,06,27,12,25,25.50
2015,06,27,12,26,25.60
2015,06,27,12,27,25.50
2015,06,27,12,28,25.50
2015,06,27,12,29,25.60
2015,06,27,12,30,25.70
2015,06,27,12,31,25.70
2015,06,27,12,32,25.70
2015,06,27,12,33,25.80
2015,06,27,12,34,25.90
2015,06,27,12,35,25.90
2015,06,27,12,36,26.10
2015,06,27,12,37,26.20
2015,06,27,12,38,26.40
2015,06,27,12,39,26.50
2015,06,27,12,40,26.60
2015,06,27,12,41,26.70
2015,06,27,12,42,26.70
2015,06,27,12,43,26.70
2015,06,27,12,44,26.70
2015,06,27,12,45,26.60
2015,06,27,12,46,26.70
2015,06,27,12,47,26.70
2015,06,27,12,48,26.80
2015,06,27,12,49,26.80
2015,06,27,12,50,26.80
2015,06,27,12,51,26.80
2015,06,27,12,52,26.90
2015,06,27,12,53,26.90
2015,06,27,12,54,27.00
2015,06,27,12,55,27.00
2015,06,27,12,56,27.00
2015,06,27,12,57,27.00
2015,06,27,12,58,27.00
2015,06,27,12,59,27.10
2015,06,27,13,00,27.00
2015,06,27,13,01,27.00
2015,06,27,13,02,26.90
2015,06,27,13,03,26.90
2015,06,27,13,04,26.80
2015,06,27,13,05,26.70
2015,06,27,13,06,26.60
2015,06,27,13,07,26.50
2015,06,27,13,08,26.50
2015,06,27,13,09,26.50
2015,06,27,13,10,26.50
2015,06,27,13,11,26.60
2015,06,27,13,12,26.60
2015,06,27,13,13,26.70
2015,06,27,13,14,26.70
2015,06,27,13,15,26.80
2015,06,27,13,16,26.80
2015,06,27,13,17,26.80
2015,06,27,13,18,26.80
2015,06,27,13,19,26.80
2015,06,27,13,20,26.80
2015,06,27,13,21,26.80
2015,06,27,13,22,26.90
2015,06,27,13,23,26.90
2015,06,27,13,24,26.90
2015,06,27,13,25,26.90
2015,06,27,13,26,26.80
2015,06,27,13,27,26.80
2015,06,27,13,28,26.70
2015,06,27,13,29,26.70
2015,06,27,13,30,26.70
2015,06,27,13,31,26.70
2015,06,27,13,32,26.70
2015,06,27,13,33,26.70
2015,06,27,13,34,26.80
2015,06,27,13,35,26.80
2015,06,27,13,36,26.70
2015,06,27,13,37,26.70
2015,06,27,13,38,26.80
2015,06,27,13,39,26.80
2015,06,27,13,40,26.80
2015,06,27,13,41,26.70
2015,06,27,13,42,26.70
2015,06,27,13,43,26.70
2015,06,27,13,44,26.70
2015,06,27,13,45,26.70
2015,06,27,13,46,26.80
2015,06,27,13,47,26.90
2015,06,27,13,48,26.90
2015,06,27,13,49,27.00
2015,06,27,13,50,27.10
2015,06,27,13,51,27.20
2015,06,27,13,52,27.20
2015,06,27,13,53,27.40
2015,06,27,13,54,27.50
2015,06,27,13,55,27.70
2015,06,27,13,56,27.80
2015,06,27,13,57,27.90
2015,06,27,13,58,27.90
2015,06,27,13,59,27.80
2015,06,27,14,00,27.70
2015,06,27,14,01,27.80
2015,06,27,14,02,27.80
2015,06,27,14,03,27.80
2015,06,27,14,04,27.80
2015,06,27,14,05,27.90
2015,06,27,14,06,27.90
2015,06,27,14,07,27.90
2015,06,27,14,08,28.00
2015,06,27,14,09,28.00
2015,06,27,14,10,28.10
2015,06,27,14,11,28.20
2015,06,27,14,12,28.30
2015,06,27,14,13,28.40
2015,06,27,14,14,28.50
2015,06,27,14,15,28.60
2015,06,27,14,16,28.70
2015,06,27,14,17,28.70
2015,06,27,14,18,28.70
2015,06,27,14,19,28.60
2015,06,27,14,20,28.50
2015,06,27,14,21,28.40
2015,06,27,14,22,28.50
2015,06,27,14,23,28.60
2015,06,27,14,24,28.60
2015,06,27,14,25,28.70
2015,06,27,14,26,28.70
2015,06,27,14,27,28.80
2015,06,27,14,28,28.80
2015,06,27,14,29,28.80
2015,06,27,14,30,28.80
2015,06,27,14,31,28.80
2015,06,27,14,32,28.80
2015,06,27,14,33,28.80
2015,06,27,14,34,28.80
2015,06,27,14,35,28.90
2015,06,27,14,36,28.90
2015,06,27,14,37,29.00
2015,06,27,14,38,29.10
2015,06,27,14,39,29.00
2015,06,27,14,40,29.00
2015,06,27,14,41,28.90
2015,06,27,14,42,28.90
2015,06,27,14,43,28.90
2015,06,27,14,44,29.00
2015,06,27,14,45,29.00
2015,06,27,14,46,29.00
2015,06,27,14,47,29.10
2015,06,27,14,48,29.10
2015,06,27,14,49,29.10
2015,06,27,14,50,29.20
2015,06,27,14,51,29.20
2015,06,27,14,52,29.20
2015,06,27,14,53,29.10
2015,06,27,14,54,29.10
2015,06,27,14,55,29.10
2015,06,27,14,56,29.10
2015,06,27,14,57,29.20
2015,06,27,14,58,29.30
2015,06,27,14,59,29.40
2015,06,27,15,00,29.50
2015,06,27,15,01,29.50
2015,06,27,15,02,29.60
2015,06,27,15,03,29.60
2015,06,27,15,04,29.60
2015,06,27,15,05,29.70
2015,06,27,15,06,29.70
2015,06,27,15,07,29.80
2015,06,27,15,08,29.80
2015,06,27,15,09,29.80
2015,06,27,15,10,29.80
2015,06,27,15,11,29.80
2015,06,27,15,12,29.60
2015,06,27,15,13,29.50
2015,06,27,15,14,29.40
2015,06,27,15,15,29.30
2015,06,27,15,16,29.20
2015,06,27,15,17,29.10
2015,06,27,15,18,29.00
2015,06,27,15,19,28.90
2015,06,27,15,20,28.70
2015,06,27,15,21,28.70
2015,06,27,15,22,28.60
2015,06,27,15,23,28.60
2015,06,27,15,24,28.60
2015,06,27,15,25,28.60
2015,06,27,15,26,28.60
2015,06,27,15,27,28.70
2015,06,27,15,28,28.70
2015,06,27,15,29,28.70
2015,06,27,15,30,28.80
2015,06,27,15,31,28.90
2015,06,27,15,32,29.00
2015,06,27,15,33,29.10
2015,06,27,15,34,29.20
2015,06,27,15,35,29.30
2015,06,27,15,36,29.40
2015,06,27,15,37,29.60
2015,06,27,15,38,29.70
2015,06,27,15,39,29.80
2015,06,27,15,40,29.80
2015,06,27,15,41,29.80
2015,06,27,15,42,29.90
2015,06,27,15,43,30.00
2015,06,27,15,44,30.10
2015,06,27,15,45,30.10
2015,06,27,15,46,30.10
2015,06,27,15,47,30.10
2015,06,27,15,48,30.10
2015,06,27,15,49,30.10
2015,06,27,15,50,30.20
2015,06,27,15,51,30.20
2015,06,27,15,52,30.30
2015,06,27,15,53,30.30
2015,06,27,15,54,30.40
2015,06,27,15,55,30.50
2015,06,27,15,56,30.60
2015,06,27,15,57,30.60
2015,06,27,15,58,30.60
2015,06,27,15,59,30.70
2015,06,27,16,00,30.70
2015,06,27,16,01,30.70
2015,06,27,16,02,30.80
2015,06,27,16,03,30.80
2015,06,27,16,04,30.80
2015,06,27,16,05,30.80
2015,06,27,16,06,30.80
2015,06,27,16,07,30.80
2015,06,27,16,08,30.80
2015,06,27,16,09,30.70
2015,06,27,16,10,30.70
2015,06,27,16,11,30.70
2015,06,27,16,12,30.70
2015,06,27,16,13,30.70
2015,06,27,16,14,30.80
2015,06,27,16,15,30.80
2015,06,27,16,16,30.80
2015,06,27,16,17,30.90
2015,06,27,16,18,30.90
2015,06,27,16,19,31.00
2015,06,27,16,20,31.10
2015,06,27,16,21,31.10
2015,06,27,16,22,31.00
2015,06,27,16,23,30.90
2015,06,27,16,24,30.90
2015,06,27,16,25,30.90
2015,06,27,16,26,30.90
2015,06,27,16,27,30.90
2015,06,27,16,28,30.90
2015,06,27,16,29,30.90
2015,06,27,16,30,30.90
2015,06,27,16,31,30.90
2015,06,27,16,32,30.90
2015,06,27,16,33,30.90
2015,06,27,16,34,30.80
2015,06,27,16,35,30.60
2015,06,27,16,36,30.60
2015,06,27,16,37,30.40
2015,06,27,16,38,30.30
2015,06,27,16,39,30.30
2015,06,27,16,40,30.30
2015,06,27,16,41,30.30
2015,06,27,16,42,30.30
2015,06,27,16,43,30.40
2015,06,27,16,44,30.40
2015,06,27,16,45,30.40
2015,06,27,16,46,30.40
2015,06,27,16,47,30.40
2015,06,27,16,48,30.40
2015,06,27,16,49,30.50
2015,06,27,16,50,30.50
2015,06,27,16,51,30.50
2015,06,27,16,52,30.40
2015,06,27,16,53,30.40
2015,06,27,16,54,30.40
2015,06,27,16,55,30.50
2015,06,27,16,56,30.60
2015,06,27,16,57,30.60
2015,06,27,16,58,30.60
2015,06,27,16,59,30.70
2015,06,27,17,00,30.70
2015,06,27,17,01,30.60
2015,06,27,17,02,30.60
2015,06,27,17,03,30.60
2015,06,27,17,04,30.60
2015,06,27,17,05,30.50
2015,06,27,17,06,30.40
2015,06,27,17,07,30.50
2015,06,27,17,08,30.50
2015,06,27,17,09,30.60
2015,06,27,17,10,30.60
2015,06,27,17,11,30.60
2015,06,27,17,12,30.60
2015,06,27,17,13,30.60
2015,06,27,17,14,30.70
2015,06,27,17,15,30.70
2015,06,27,17,16,30.70
2015,06,27,17,17,30.70
2015,06,27,17,18,30.70
2015,06,27,17,19,30.70